QPF
0.01 0.01 0.01 0.01 0.02 0.01 0.02 0.02 0.02 0.02 0.01 0.01 0.02 0.03 0.07 0.09 0.09 0.10 0.10 0.12 0.12 0.09 0.07 0.05 0.04 0.04 0.03 0.03 0.03 0.04 0.03 0.03 0.02 0.01 0.01 0.00 0.00 0.00 0.00 0.00 0.00 0.00 0.00 0.00
0.01 0.01 0.01 0.01 0.01 0.01 0.02 0.02 0.02 0.02 0.01 0.01 0.01 0.02 0.04 0.06 0.07 0.08 0.07 0.07 0.09 0.08 0.07 0.08 0.07 0.05 0.04 0.04 0.05 0.03 0.03 0.02 0.01 0.00 0.00 0.00 0.00 0.00 0.00 0.00 0.00 0.00 0.00 0.00
0.02 0.02 0.02 0.02 0.02 0.02 0.02 0.02 0.02 0.01 0.01 0.01 0.01 0.02 0.03 0.04 0.06 0.08 0.09 0.08 0.06 0.07 0.06 0.05 0.06 0.05 0.03 0.03 0.02 0.01 0.01 0.01 0.00 0.00 0.00 0.00 0.00 0.00 0.00 0.00 0.00 0.00 0.00 0.00
0.02 0.02 0.02 0.02 0.02 0.01 0.01 0.01 0.01 0.01 0.01 0.01 0.02 0.02 0.03 0.05 0.06 0.07 0.09 0.09 0.08 0.07 0.07 0.06 0.04 0.03 0.03 0.03 0.03 0.02 0.01 0.01 0.00 0.00 0.00 0.00 0.00 0.00 0.00 0.00 0.00 0.00 0.00 0.00
0.01 0.01 0.02 0.04 0.02 0.01 0.01 0.00 0.01 0.01 0.01 0.01 0.02 0.03 0.03 0.04 0.06 0.07 0.07 0.08 0.07 0.05 0.05 0.04 0.02 0.02 0.03 0.02 0.02 0.01 0.01 0.01 0.00 0.00 0.00 0.00 0.00 0.00 0.00 0.00 0.00 0.00 0.00 0.00
0.00 0.01 0.02 0.03 0.02 0.01 0.00 0.00 0.00 0.00 0.00 0.01 0.02 0.03 0.03 0.03 0.04 0.04 0.04 0.04 0.04 0.04 0.03 0.02 0.02 0.01 0.02 0.02 0.01 0.01 0.00 0.00 0.00 0.00 0.00 0.00 0.00 0.00 0.00 0.00 0.00 0.00 0.00 0.00
0.00 0.01 0.01 0.01 0.01 0.01 0.01 0.00 0.00 0.00 0.00 0.00 0.02 0.04 0.03 0.02 0.03 0.03 0.02 0.02 0.02 0.02 0.02 0.02 0.03 0.02 0.02 0.03 0.02 0.01 0.00 0.00 0.00 0.00 0.00 0.00 0.00 0.00 0.00 0.00 0.00 0.00 0.00 0.00
0.00 0.00 0.00 0.00 0.00 0.01 0.00 0.00 0.00 0.00 0.00 0.00 0.01 0.02 0.03 0.02 0.02 0.03 0.03 0.03 0.02 0.01 0.01 0.02 0.02 0.02 0.02 0.02 0.01 0.00 0.00 0.00 0.00 0.00 0.00 0.00 0.00 0.00 0.00 0.00 0.00 0.00 0.00 0.00
0.00 0.00 0.00 0.00 0.00 0.00 0.00 0.00 0.00 0.00 0.00 0.00 0.00 0.01 0.03 0.04 0.04 0.03 0.02 0.03 0.02 0.02 0.01 0.01 0.01 0.01 0.02 0.02 0.02 0.01 0.00 0.00 0.00 0.00 0.00 0.00 0.00 0.00 0.00 0.00 0.00 0.00 0.00 0.00
0.00 0.00 0.00 0.00 0.00 0.00 0.00 0.00 0.00 0.00 0.00 0.00 0.00 0.01 0.01 0.03 0.05 0.04 0.02 0.02 0.02 0.02 0.02 0.01 0.01 0.01 0.02 0.02 0.02 0.01 0.00 0.00 0.00 0.00 0.00 0.00 0.00 0.00 0.00 0.00 0.00 0.00 0.00 0.00
0.00 0.00 0.00 0.00 0.00 0.00 0.01 0.01 0.02 0.01 0.01 0.01 0.01 0.01 0.01 0.02 0.03 0.02 0.03 0.03 0.02 0.02 0.02 0.02 0.02 0.01 0.01 0.01 0.01 0.00 0.00 0.00 0.00 0.00 0.00 0.00 0.00 0.00 0.00 0.00 0.00 0.00 0.00 0.00
0.00 0.00 0.00 0.00 0.00 0.00 0.00 0.01 0.01 0.01 0.01 0.02 0.01 0.01 0.01 0.02 0.02 0.02 0.03 0.04 0.02 0.01 0.01 0.01 0.01 0.01 0.01 0.00 0.00 0.00 0.00 0.00 0.00 0.00 0.00 0.00 0.00 0.00 0.00 0.00 0.00 0.00 0.00 0.00
0.00 0.00 0.00 0.00 0.00 0.00 0.00 0.00 0.00 0.01 0.01 0.02 0.01 0.01 0.01 0.02 0.01 0.01 0.02 0.02 0.01 0.01 0.01 0.01 0.00 0.01 0.00 0.00 0.00 0.00 0.00 0.00 0.00 0.00 0.00 0.00 0.00 0.00 0.00 0.00 0.00 0.00 0.00 0.00
0.00 0.00 0.00 0.00 0.00 0.00 0.00 0.00 0.00 0.00 0.00 0.00 0.01 0.01 0.01 0.01 0.01 0.01 0.01 0.01 0.01 0.01 0.01 0.00 0.00 0.00 0.00 0.00 0.00 0.00 0.00 0.00 0.00 0.00 0.00 0.00 0.00 0.00 0.00 0.00 0.00 0.00 0.00 0.00
0.00 0.00 0.00 0.00 0.00 0.00 0.00 0.00 0.00 0.00 0.00 0.00 0.00 0.00 0.00 0.00 0.00 0.00 0.00 0.00 0.00 0.01 0.00 0.00 0.00 0.00 0.00 0.00 0.00 0.00 0.00 0.00 0.00 0.00 0.00 0.00 0.00 0.00 0.00 0.00 0.00 0.00 0.00 0.00
0.00 0.00 0.00 0.00 0.00 0.00 0.00 0.00 0.00 0.00 0.00 0.00 0.00 0.00 0.00 0.00 0.00 0.00 0.00 0.00 0.00 0.00 0.00 0.00 0.00 0.00 0.00 0.00 0.00 0.00 0.00 0.00 0.00 0.00 0.00 0.00 0.00 0.00 0.00 0.00 0.00 0.00 0.00 0.00
0.00 0.00 0.00 0.00 0.00 0.00 0.00 0.00 0.00 0.00 0.00 0.00 0.00 0.00 0.00 0.00 0.00 0.00 0.00 0.00 0.00 0.00 0.00 0.00 0.00 0.00 0.00 0.00 0.00 0.00 0.00 0.00 0.00 0.00 0.00 0.00 0.00 0.00 0.00 0.00 0.00 0.00 0.00 0.00
0.00 0.00 0.00 0.00 0.00 0.00 0.00 0.00 0.00 0.00 0.00 0.00 0.00 0.00 0.00 0.00 0.00 0.00 0.00 0.00 0.00 0.00 0.00 0.00 0.00 0.00 0.00 0.00 0.00 0.00 0.00 0.00 0.00 0.00 0.00 0.00 0.00 0.00 0.00 0.00 0.00 0.00 0.00 0.00
0.00 0.00 0.00 0.00 0.00 0.00 0.00 0.00 0.00 0.00 0.00 0.00 0.00 0.00 0.00 0.00 0.00 0.00 0.00 0.00 0.00 0.00 0.00 0.00 0.00 0.00 0.00 0.00 0.00 0.00 0.00 0.00 0.00 0.00 0.00 0.00 0.00 0.00 0.00 0.00 0.00 0.00 0.00 0.00
0.00 0.00 0.00 0.00 0.00 0.00 0.00 0.00 0.00 0.00 0.00 0.00 0.00 0.00 0.00 0.00 0.00 0.00 0.00 0.00 0.00 0.00 0.00 0.00 0.00 0.00 0.00 0.00 0.00 0.00 0.00 0.00 0.00 0.00 0.00 0.00 0.00 0.00 0.00 0.00 0.00 0.00 0.00 0.00
0.00 0.00 0.00 0.00 0.00 0.00 0.00 0.00 0.00 0.00 0.00 0.00 0.00 0.00 0.00 0.00 0.00 0.00 0.00 0.00 0.00 0.00 0.00 0.00 0.00 0.00 0.00 0.00 0.00 0.00 0.00 0.00 0.00 0.00 0.00 0.00 0.00 0.00 0.00 0.00 0.00 0.00 0.00 0.00
0.00 0.00 0.00 0.00 0.00 0.00 0.00 0.00 0.00 0.00 0.00 0.00 0.00 0.00 0.00 0.00 0.00 0.00 0.00 0.00 0.00 0.00 0.00 0.00 0.00 0.00 0.00 0.00 0.00 0.00 0.00 0.00 0.00 0.00 0.00 0.00 0.00 0.00 0.00 0.00 0.00 0.00 0.00 0.00
0.00 0.00 0.00 0.00 0.00 0.00 0.00 0.00 0.00 0.00 0.00 0.00 0.00 0.00 0.00 0.00 0.00 0.00 0.00 0.00 0.00 0.00 0.00 0.00 0.00 0.00 0.00 0.00 0.00 0.00 0.00 0.00 0.00 0.00 0.00 0.00 0.00 0.00 0.00 0.00 0.00 0.00 0.00 0.00
0.00 0.00 0.00 0.00 0.00 0.00 0.00 0.00 0.00 0.00 0.00 0.00 0.00 0.00 0.00 0.00 0.00 0.00 0.00 0.00 0.00 0.00 0.00 0.00 0.00 0.00 0.00 0.00 0.00 0.00 0.00 0.00 0.00 0.00 0.00 0.00 0.00 0.00 0.00 0.00 0.00 0.00 0.00 0.00
0.00 0.00 0.00 0.00 0.00 0.00 0.00 0.00 0.00 0.00 0.00 0.00 0.00 0.00 0.00 0.00 0.00 0.00 0.00 0.00 0.00 0.00 0.00 0.00 0.00 0.00 0.00 0.00 0.00 0.00 0.00 0.00 0.00 0.00 0.00 0.00 0.00 0.00 0.00 0.00 0.00 0.00 0.00 0.00
0.00 0.00 0.00 0.00 0.00 0.00 0.00 0.00 0.00 0.00 0.00 0.00 0.00 0.00 0.00 0.00 0.00 0.00 0.00 0.00 0.00 0.00 0.00 0.00 0.00 0.00 0.00 0.00 0.00 0.00 0.00 0.00 0.00 0.00 0.00 0.00 0.00 0.00 0.00 0.00 0.00 0.00 0.00 0.00
0.00 0.00 0.00 0.00 0.00 0.00 0.00 0.00 0.00 0.00 0.00 0.00 0.00 0.00 0.00 0.00 0.00 0.00 0.00 0.00 0.00 0.00 0.00 0.00 0.00 0.00 0.00 0.00 0.00 0.00 0.00 0.00 0.00 0.00 0.00 0.00 0.00 0.00 0.00 0.00 0.00 0.00 0.00 0.00
MSLP
1013.33 1013.38 1013.35 1013.27 1013.13 1012.96 1012.78 1012.61 1012.49 1012.44 1012.51 1012.72 1013.11 1013.66 1014.37 1015.22 1016.15 1017.11 1018.05 1018.91 1019.65 1020.25 1020.72 1021.07 1021.33 1021.55 1021.76 1021.99 1022.26 1022.58 1022.92 1023.29 1023.65 1023.99 1024.30 1024.57 1024.81 1025.03 1025.24 1025.43 1025.62 1025.80 1025.95 1026.07
1013.55 1013.52 1013.38 1013.15 1012.86 1012.56 1012.28 1012.07 1011.96 1011.99 1012.19 1012.56 1013.12 1013.83 1014.68 1015.62 1016.60 1017.57 1018.48 1019.29 1019.98 1020.55 1021.00 1021.35 1021.65 1021.91 1022.17 1022.45 1022.75 1023.08 1023.42 1023.76 1024.08 1024.38 1024.66 1024.90 1025.13 1025.35 1025.56 1025.78 1025.99 1026.19 1026.35 1026.48
1013.68 1013.59 1013.36 1013.03 1012.64 1012.25 1011.92 1011.70 1011.64 1011.77 1012.09 1012.61 1013.31 1014.16 1015.11 1016.11 1017.11 1018.07 1018.93 1019.69 1020.33 1020.85 1021.28 1021.64 1021.96 1022.25 1022.55 1022.86 1023.19 1023.51 1023.84 1024.14 1024.43 1024.68 1024.91 1025.12 1025.33 1025.54 1025.76 1025.99 1026.22 1026.44 1026.63 1026.78
1013.73 1013.60 1013.32 1012.92 1012.48 1012.07 1011.74 1011.55 1011.55 1011.77 1012.21 1012.85 1013.67 1014.61 1015.63 1016.66 1017.66 1018.58 1019.40 1020.10 1020.69 1021.17 1021.58 1021.94 1022.27 1022.60 1022.93 1023.26 1023.59 1023.91 1024.21 1024.47 1024.71 1024.91 1025.09 1025.26 1025.44 1025.63 1025.85 1026.08 1026.33 1026.57 1026.78 1026.95
1013.67 1013.53 1013.23 1012.83 1012.40 1012.00 1011.71 1011.59 1011.67 1011.98 1012.51 1013.25 1014.14 1015.15 1016.19 1017.23 1018.20 1019.08 1019.85 1020.50 1021.04 1021.50 1021.89 1022.25 1022.60 1022.94 1023.28 1023.63 1023.96 1024.26 1024.53 1024.76 1024.95 1025.10 1025.24 1025.37 1025.52 1025.69 1025.89 1026.12 1026.37 1026.62 1026.85 1027.03
1013.51 1013.37 1013.10 1012.73 1012.35 1012.02 1011.81 1011.78 1011.95 1012.34 1012.95 1013.75 1014.69 1015.71 1016.76 1017.77 1018.71 1019.55 1020.28 1020.89 1021.39 1021.83 1022.21 1022.57 1022.92 1023.27 1023.62 1023.96 1024.28 1024.57 1024.81 1025.01 1025.17 1025.29 1025.39 1025.49 1025.62 1025.77 1025.96 1026.17 1026.42 1026.66 1026.88 1027.07
1013.23 1013.12 1012.91 1012.63 1012.35 1012.12 1012.02 1012.08 1012.35 1012.82 1013.48 1014.32 1015.27 1016.29 1017.32 1018.30 1019.20 1020.00 1020.68 1021.26 1021.74 1022.15 1022.53 1022.88 1023.23 1023.58 1023.92 1024.26 1024.56 1024.83 1025.06 1025.24 1025.38 1025.48 1025.57 1025.66 1025.77 1025.91 1026.08 1026.29 1026.51 1026.73 1026.93 1027.10
1012.85 1012.81 1012.68 1012.52 1012.37 1012.28 1012.31 1012.49 1012.85 1013.38 1014.09 1014.94 1015.89 1016.88 1017.87 1018.81 1019.67 1020.43 1021.08 1021.62 1022.09 1022.49 1022.85 1023.19 1023.53 1023.86 1024.19 1024.50 1024.80 1025.05 1025.27 1025.45 1025.59 1025.70 1025.80 1025.89 1026.01 1026.14 1026.30 1026.48 1026.68 1026.86 1027.03 1027.17
1012.41 1012.45 1012.45 1012.44 1012.44 1012.51 1012.68 1012.98 1013.43 1014.02 1014.76 1015.61 1016.54 1017.49 1018.43 1019.33 1020.14 1020.86 1021.47 1022.00 1022.44 1022.82 1023.17 1023.49 1023.80 1024.11 1024.41 1024.70 1024.98 1025.23 1025.45 1025.64 1025.80 1025.93 1026.06 1026.18 1026.31 1026.44 1026.60 1026.76 1026.92 1027.06 1027.19 1027.28
1011.96 1012.12 1012.26 1012.41 1012.58 1012.81 1013.13 1013.55 1014.08 1014.73 1015.48 1016.32 1017.21 1018.12 1019.01 1019.85 1020.61 1021.29 1021.88 1022.37 1022.79 1023.16 1023.48 1023.77 1024.05 1024.33 1024.60 1024.87 1025.12 1025.37 1025.60 1025.80 1025.99 1026.17 1026.33 1026.48 1026.63 1026.78 1026.92 1027.06 1027.19 1027.29 1027.37 1027.41
1011.57 1011.85 1012.14 1012.46 1012.80 1013.20 1013.65 1014.18 1014.78 1015.47 1016.23 1017.05 1017.89 1018.75 1019.58 1020.36 1021.08 1021.72 1022.27 1022.74 1023.13 1023.47 1023.76 1024.03 1024.27 1024.51 1024.75 1024.99 1025.23 1025.47 1025.70 1025.93 1026.15 1026.36 1026.56 1026.75 1026.92 1027.08 1027.22 1027.33 1027.42 1027.48 1027.51 1027.51
1011.27 1011.68 1012.13 1012.61 1013.11 1013.65 1014.22 1014.84 1015.51 1016.22 1016.97 1017.76 1018.55 1019.35 1020.11 1020.84 1021.51 1022.10 1022.62 1023.06 1023.43 1023.74 1024.00 1024.23 1024.44 1024.65 1024.85 1025.06 1025.29 1025.52 1025.77 1026.01 1026.26 1026.50 1026.72 1026.94 1027.12 1027.28 1027.41 1027.50 1027.56 1027.59 1027.58 1027.54
1011.08 1011.62 1012.21 1012.83 1013.48 1014.13 1014.81 1015.50 1016.20 1016.92 1017.66 1018.40 1019.14 1019.87 1020.58 1021.24 1021.86 1022.41 1022.89 1023.30 1023.65 1023.93 1024.17 1024.37 1024.56 1024.73 1024.91 1025.10 1025.30 1025.53 1025.77 1026.03 1026.29 1026.54 1026.78 1027.00 1027.19 1027.34 1027.46 1027.53 1027.57 1027.57 1027.53 1027.47
1010.99 1011.65 1012.36 1013.10 1013.85 1014.61 1015.35 1016.09 1016.82 1017.53 1018.24 1018.93 1019.62 1020.29 1020.93 1021.53 1022.10 1022.61 1023.06 1023.44 1023.77 1024.04 1024.26 1024.44 1024.60 1024.76 1024.91 1025.08 1025.27 1025.49 1025.72 1025.97 1026.23 1026.48 1026.72 1026.94 1027.12 1027.26 1027.36 1027.42 1027.44 1027.42 1027.38 1027.32
1010.98 1011.74 1012.54 1013.37 1014.20 1015.02 1015.81 1016.58 1017.31 1018.01 1018.68 1019.33 1019.96 1020.57 1021.15 1021.71 1022.22 1022.70 1023.12 1023.48 1023.79 1024.05 1024.26 1024.43 1024.58 1024.72 1024.86 1025.02 1025.19 1025.39 1025.61 1025.85 1026.09 1026.33 1026.56 1026.75 1026.92 1027.05 1027.13 1027.18 1027.19 1027.18 1027.15 1027.11
1010.99 1011.82 1012.70 1013.59 1014.47 1015.33 1016.15 1016.93 1017.65 1018.34 1018.98 1019.59 1020.17 1020.72 1021.26 1021.77 1022.25 1022.69 1023.09 1023.44 1023.74 1023.99 1024.20 1024.36 1024.51 1024.64 1024.77 1024.91 1025.07 1025.25 1025.45 1025.66 1025.89 1026.10 1026.31 1026.49 1026.64 1026.75 1026.83 1026.88 1026.90 1026.91 1026.91 1026.90
1011.00 1011.88 1012.80 1013.74 1014.65 1015.54 1016.37 1017.15 1017.87 1018.53 1019.15 1019.72 1020.27 1020.79 1021.28 1021.76 1022.21 1022.63 1023.01 1023.35 1023.65 1023.89 1024.10 1024.26 1024.40 1024.53 1024.65 1024.78 1024.92 1025.08 1025.25 1025.44 1025.64 1025.84 1026.02 1026.18 1026.32 1026.44 1026.52 1026.59 1026.63 1026.67 1026.70 1026.73
1010.99 1011.90 1012.86 1013.81 1014.75 1015.64 1016.48 1017.26 1017.97 1018.62 1019.22 1019.78 1020.30 1020.79 1021.27 1021.72 1022.15 1022.56 1022.93 1023.26 1023.55 1023.79 1023.99 1024.15 1024.29 1024.41 1024.52 1024.63 1024.75 1024.89 1025.04 1025.21 1025.39 1025.56 1025.73 1025.89 1026.03 1026.15 1026.26 1026.35 1026.42 1026.50 1026.57 1026.65
1010.95 1011.89 1012.86 1013.84 1014.78 1015.68 1016.52 1017.30 1018.01 1018.65 1019.24 1019.79 1020.30 1020.79 1021.25 1021.69 1022.11 1022.51 1022.87 1023.19 1023.47 1023.71 1023.90 1024.06 1024.19 1024.29 1024.39 1024.48 1024.59 1024.70 1024.84 1024.99 1025.15 1025.32 1025.48 1025.65 1025.80 1025.94 1026.08 1026.20 1026.31 1026.42 1026.54 1026.65
1010.92 1011.88 1012.86 1013.84 1014.79 1015.69 1016.53 1017.31 1018.01 1018.66 1019.25 1019.79 1020.30 1020.78 1021.24 1021.68 1022.10 1022.49 1022.84 1023.16 1023.43 1023.66 1023.84 1023.98 1024.10 1024.19 1024.27 1024.35 1024.44 1024.54 1024.66 1024.79 1024.95 1025.12 1025.29 1025.47 1025.65 1025.82 1025.98 1026.14 1026.29 1026.43 1026.57 1026.71
1010.90 1011.88 1012.88 1013.86 1014.81 1015.70 1016.54 1017.30 1018.01 1018.65 1019.24 1019.79 1020.30 1020.78 1021.24 1021.68 1022.09 1022.47 1022.82 1023.13 1023.39 1023.61 1023.78 1023.92 1024.02 1024.10 1024.16 1024.23 1024.30 1024.39 1024.51 1024.64 1024.80 1024.97 1025.16 1025.36 1025.56 1025.76 1025.95 1026.13 1026.31 1026.47 1026.63 1026.77
1010.92 1011.92 1012.91 1013.89 1014.83 1015.71 1016.54 1017.29 1017.99 1018.63 1019.21 1019.76 1020.27 1020.76 1021.21 1021.65 1022.06 1022.44 1022.78 1023.08 1023.33 1023.54 1023.71 1023.83 1023.93 1024.00 1024.06 1024.12 1024.19 1024.28 1024.39 1024.53 1024.69 1024.88 1025.08 1025.30 1025.52 1025.74 1025.95 1026.15 1026.34 1026.50 1026.65 1026.78
1010.98 1011.98 1012.97 1013.93 1014.85 1015.71 1016.52 1017.25 1017.93 1018.56 1019.14 1019.68 1020.18 1020.66 1021.12 1021.55 1021.96 1022.33 1022.67 1022.96 1023.21 1023.42 1023.59 1023.71 1023.81 1023.89 1023.95 1024.02 1024.09 1024.19 1024.30 1024.45 1024.62 1024.82 1025.03 1025.26 1025.49 1025.71 1025.93 1026.13 1026.31 1026.47 1026.60 1026.70
1011.04 1012.03 1013.01 1013.95 1014.84 1015.67 1016.44 1017.15 1017.81 1018.42 1018.98 1019.51 1020.00 1020.48 1020.92 1021.35 1021.75 1022.12 1022.45 1022.75 1023.00 1023.22 1023.39 1023.53 1023.64 1023.73 1023.82 1023.90 1023.99 1024.09 1024.22 1024.38 1024.56 1024.76 1024.97 1025.20 1025.42 1025.64 1025.85 1026.03 1026.19 1026.32 1026.43 1026.50
1011.07 1012.04 1012.99 1013.89 1014.75 1015.54 1016.28 1016.96 1017.59 1018.18 1018.72 1019.24 1019.72 1020.18 1020.62 1021.04 1021.43 1021.80 1022.13 1022.43 1022.69 1022.92 1023.11 1023.28 1023.41 1023.53 1023.64 1023.74 1023.85 1023.98 1024.12 1024.28 1024.46 1024.66 1024.86 1025.08 1025.28 1025.48 1025.66 1025.82 1025.95 1026.05 1026.13 1026.17
1011.02 1011.96 1012.87 1013.73 1014.55 1015.30 1016.01 1016.66 1017.27 1017.84 1018.36 1018.86 1019.33 1019.78 1020.21 1020.62 1021.01 1021.37 1021.71 1022.01 1022.29 1022.54 1022.75 1022.94 1023.11 1023.26 1023.39 1023.52 1023.66 1023.80 1023.95 1024.11 1024.29 1024.47 1024.66 1024.85 1025.03 1025.19 1025.34 1025.47 1025.57 1025.64 1025.69 1025.72
1010.87 1011.76 1012.62 1013.44 1014.21 1014.94 1015.62 1016.25 1016.84 1017.40 1017.92 1018.41 1018.88 1019.32 1019.74 1020.14 1020.52 1020.88 1021.21 1021.52 1021.81 1022.07 1022.31 1022.52 1022.72 1022.90 1023.06 1023.22 1023.37 1023.52 1023.67 1023.83 1023.99 1024.15 1024.31 1024.46 1024.61 1024.74 1024.86 1024.96 1025.03 1025.09 1025.13 1025.16
Thickness
5628 5633 5632 5632 5632 5631 5626 5623 5617 5620 5618 5616 5612 5606 5599 5593 5587 5582 5577 5572 5568 5565 5562 5560 5559 5558 5557 5555 5554 5552 5551 5549 5546 5544 5542 5541 5539 5537 5535 5533 5530 5528 5526 5524
5627 5633 5632 5629 5631 5630 5627 5624 5620 5618 5613 5611 5606 5599 5592 5586 5581 5575 5570 5565 5560 5557 5554 5552 5550 5548 5545 5543 5541 5540 5538 5536 5534 5532 5531 5529 5527 5524 5522 5520 5518 5516 5514 5512
5617 5626 5628 5620 5626 5626 5622 5620 5617 5613 5610 5604 5598 5592 5586 5580 5575 5569 5563 5557 5552 5549 5545 5542 5539 5537 5534 5531 5530 5528 5526 5524 5523 5521 5519 5517 5516 5512 5510 5508 5506 5504 5502 5501
5612 5619 5612 5621 5630 5628 5620 5617 5615 5612 5606 5599 5592 5584 5578 5574 5569 5562 5556 5550 5545 5540 5536 5532 5529 5527 5524 5522 5520 5518 5516 5514 5512 5511 5509 5507 5505 5502 5500 5498 5497 5495 5493 5491
5606 5608 5614 5624 5627 5624 5617 5610 5610 5605 5597 5589 5582 5576 5568 5564 5560 5554 5548 5542 5537 5532 5528 5524 5521 5518 5516 5513 5511 5509 5507 5505 5503 5502 5499 5497 5496 5494 5492 5490 5488 5486 5484 5482
5608 5609 5608 5621 5629 5629 5619 5606 5605 5601 5593 5585 5580 5574 5564 5556 5551 5545 5540 5534 5529 5525 5521 5516 5513 5511 5508 5504 5502 5501 5499 5497 5495 5494 5492 5489 5487 5486 5484 5482 5480 5478 5476 5474
5611 5610 5615 5627 5629 5627 5609 5606 5603 5597 5590 5582 5575 5569 5559 5550 5543 5538 5532 5527 5522 5518 5514 5510 5507 5504 5500 5497 5495 5494 5492 5490 5488 5486 5484 5482 5479 5478 5476 5475 5473 5471 5469 5466
5609 5609 5612 5626 5626 5618 5611 5605 5599 5591 5583 5575 5567 5559 5551 5543 5536 5531 5525 5519 5515 5511 5506 5502 5500 5497 5494 5490 5489 5487 5485 5483 5481 5479 5478 5475 5472 5470 5469 5468 5465 5463 5461 5460
5617 5616 5619 5619 5619 5613 5608 5601 5594 5586 5578 5571 5562 5554 5546 5538 5531 5525 5519 5513 5509 5505 5500 5496 5493 5491 5488 5485 5483 5481 5479 5476 5474 5473 5470 5468 5466 5464 5461 5460 5458 5456 5455 5454
5620 5621 5619 5615 5612 5609 5605 5599 5592 5584 5575 5568 5559 5550 5541 5533 5525 5519 5514 5509 5504 5500 5495 5491 5488 5486 5483 5480 5478 5475 5472 5470 5468 5466 5463 5461 5459 5457 5455 5453 5452 5451 5450 5449
5622 5621 5618 5614 5609 5604 5599 5594 5587 5579 5572 5565 5557 5547 5538 5530 5522 5516 5510 5505 5501 5497 5492 5487 5484 5481 5479 5476 5474 5470 5467 5465 5463 5460 5458 5455 5453 5451 5450 5449 5448 5447 5446 5444
5629 5627 5621 5613 5606 5602 5597 5590 5583 5576 5566 5559 5553 5544 5535 5527 5519 5513 5507 5502 5498 5493 5489 5485 5481 5478 5476 5473 5470 5467 5464 5461 5459 5456 5454 5452 5449 5448 5447 5447 5446 5445 5444 5442
5639 5630 5622 5614 5606 5601 5594 5587 5580 5573 5564 5555 5547 5541 5533 5524 5517 5511 5506 5501 5497 5492 5487 5483 5479 5476 5474 5471 5468 5465 5462 5460 5457 5455 5452 5450 5448 5446 5445 5444 5444 5443 5442 5441
5638 5630 5617 5611 5604 5598 5592 5585 5577 5568 5560 5553 5545 5538 5530 5523 5516 5511 5506 5501 5496 5491 5487 5482 5479 5476 5474 5471 5467 5464 5462 5460 5457 5454 5451 5449 5447 5445 5443 5442 5442 5441 5441 5440
5635 5632 5622 5612 5603 5595 5589 5582 5573 5564 5556 5549 5543 5537 5530 5523 5517 5512 5507 5502 5496 5491 5487 5483 5479 5476 5474 5471 5468 5465 5462 5459 5457 5454 5451 5449 5447 5445 5443 5442 5441 5440 5439 5439
5631 5626 5618 5610 5601 5593 5587 5580 5573 5564 5556 5549 5542 5537 5531 5525 5518 5513 5507 5502 5497 5492 5488 5484 5481 5478 5476 5473 5469 5466 5463 5461 5458 5455 5452 5450 5448 5446 5444 5442 5441 5440 5439 5438
5631 5621 5615 5608 5601 5594 5587 5581 5575 5566 5558 5551 5544 5538 5531 5525 5519 5513 5508 5504 5499 5495 5490 5486 5483 5481 5478 5475 5472 5468 5466 5463 5461 5457 5454 5452 5449 5447 5445 5443 5442 5441 5439 5438
5642 5634 5626 5617 5607 5597 5589 5582 5575 5568 5560 5553 5547 5540 5533 5527 5521 5515 5510 5505 5501 5496 5493 5489 5486 5484 5481 5478 5474 5471 5468 5465 5462 5459 5456 5453 5451 5448 5446 5444 5443 5442 5440 5439
5637 5631 5623 5616 5608 5600 5592 5584 5576 5569 5562 5556 5549 5542 5536 5530 5524 5518 5513 5508 5504 5500 5497 5493 5491 5487 5484 5481 5478 5474 5471 5468 5465 5462 5459 5456 5453 5451 5448 5446 5445 5443 5442 5441
5635 5629 5622 5615 5608 5601 5593 5585 5578 5571 5564 5558 5551 5544 5538 5532 5527 5522 5517 5512 5509 5506 5502 5498 5495 5491 5488 5485 5482 5478 5475 5472 5469 5466 5463 5460 5457 5454 5451 5449 5447 5446 5444 5443
5634 5628 5622 5615 5608 5602 5595 5588 5581 5573 5567 5561 5554 5548 5542 5536 5530 5525 5520 5516 5514 5510 5507 5503 5499 5496 5493 5490 5487 5483 5479 5476 5473 5470 5467 5464 5461 5458 5456 5453 5451 5449 5447 5446
5635 5629 5623 5616 5609 5602 5595 5589 5583 5576 5569 5563 5558 5552 5545 5539 5534 5529 5526 5523 5520 5516 5511 5508 5505 5502 5498 5495 5491 5488 5484 5481 5478 5475 5472 5469 5466 5463 5460 5457 5455 5453 5451 5449
5636 5630 5624 5618 5611 5604 5596 5591 5585 5580 5573 5568 5562 5556 5550 5545 5539 5535 5530 5528 5525 5521 5517 5513 5510 5507 5504 5500 5496 5493 5490 5487 5484 5481 5477 5474 5471 5468 5465 5462 5460 5457 5455 5453
5636 5631 5625 5618 5611 5604 5597 5592 5587 5583 5577 5572 5567 5561 5555 5549 5543 5541 5538 5535 5530 5526 5522 5519 5516 5512 5508 5504 5501 5498 5495 5492 5489 5486 5483 5479 5476 5473 5470 5467 5465 5462 5460 5458
5637 5631 5624 5618 5611 5607 5600 5594 5588 5583 5578 5574 5569 5565 5560 5557 5552 5548 5542 5539 5535 5531 5527 5524 5520 5517 5513 5509 5506 5503 5500 5498 5495 5492 5488 5485 5482 5479 5476 5473 5470 5468 5466 5463
5636 5631 5626 5622 5617 5611 5604 5597 5591 5586 5581 5576 5571 5567 5563 5560 5556 5552 5547 5544 5540 5536 5532 5528 5525 5521 5518 5515 5512 5509 5506 5503 5500 5497 5494 5491 5488 5485 5482 5480 5477 5474 5472 5469
5634 5629 5624 5618 5614 5611 5606 5601 5596 5590 5586 5581 5576 5571 5567 5563 5559 5555 5551 5548 5544 5540 5536 5533 5530 5526 5523 5520 5517 5514 5512 5509 5506 5503 5501 5498 5495 5492 5489 5486 5483 5480 5478 5475